Weather History for KIEN - May, 2013

Change the Weather History Date:

Friday, May 17, 2013

  Actual Average Record
Temperature  
Mean Temperature 65 °F 56 °F  
Max Temperature 84 °F 70 °F 91 °F (2012)
Min Temperature 45 °F 42 °F 34 °F (1999)
Degree Days  
Heating Degree Days 0 9  
Month to date heating degree days 202 204  
Since 1 July heating degree days 6981 7024  
Cooling Degree Days 0 0  
Month to date cooling degree days 14 0  
Year to date cooling degree days 14 0  
Growing Degree Days 15 (Base 50)    
Moisture  
Dew Point 51 °F    
Average Humidity 70    
Maximum Humidity 100    
Minimum Humidity 39    
Precipitation  
Precipitation 0.02 in 0.07 in 1.23 in (2000)
Month to date precipitation 0.57 1.43  
Year to date precipitation 3.04 5.00  
Sea Level Pressure  
Sea Level Pressure 29.73 in    
Wind  
Wind Speed 10 mph (East)    
Max Wind Speed 29 mph    
Max Gust Speed 37 mph    
Visibility 10 miles    
Events Rain , Thunderstorm    
T = Trace of Precipitation, MM = Missing Value Source: NWS Daily Summary

Daily Weather History Graph

Daily Weather History Graph

Search for Another Location

Airport or City:

Trip Planner

Search our weather history database for the weather conditions in past years. The results will help you decide how hot, cold, wet, or windy it might be!

Date:

Astronomy

May. 17, 2013 Rise Set
Actual Time 5:24 AM MDT 8:09 PM MDT
Civil Twilight 4:51 AM MDT 8:42 PM MDT
Nautical Twilight 4:10 AM MDT 9:23 PM MDT
Astronomical Twilight 3:22 AM MDT 10:11 PM MDT
Moon 12:03 PM MDT (5/17) 12:58 AM MDT (5/17)
Length of Visible Light 15h 50m
Length of Day
14h 44m
Waxing Crescent, 46% of the Moon is Illuminated
May 17
Waxing Crescent
May 17
First Quarter
May 24
Full
May 31
Last Quarter
Jun 8
New

Hourly Weather History & Observations

Time (MDT) Temp. Heat Index Dew Point Humidity Pressure Visibility Wind Dir Wind Speed Gust Speed Precip Events Conditions
12:52 AM 52.0 °F - 50.0 °F 93% 29.79 in 10.0 mi Calm Calm - N/A   Clear
1:52 AM 50.0 °F - 48.9 °F 96% 29.78 in 10.0 mi Calm Calm - N/A   Clear
2:52 AM 48.9 °F - 46.9 °F 93% 29.76 in 10.0 mi Calm Calm - N/A   Clear
3:52 AM 48.9 °F - 48.0 °F 97% 29.76 in 10.0 mi Calm Calm - N/A   Clear
4:52 AM 46.9 °F - 46.0 °F 97% 29.76 in 10.0 mi ENE 3.5 mph - N/A   Clear
5:52 AM 46.9 °F - 46.0 °F 97% 29.78 in 10.0 mi NE 3.5 mph - N/A   Clear
6:52 AM 51.1 °F - 48.0 °F 89% 29.83 in 10.0 mi Calm Calm - N/A   Clear
7:52 AM 57.0 °F - 52.0 °F 83% 29.82 in 10.0 mi Calm Calm - N/A   Clear
8:52 AM 64.9 °F - 55.0 °F 70% 29.79 in 10.0 mi ENE 3.5 mph - N/A   Clear
9:52 AM 71.1 °F - 57.0 °F 61% 29.78 in 10.0 mi ENE 5.8 mph - N/A   Clear
10:52 AM 73.9 °F - 55.0 °F 52% 29.78 in 10.0 mi ENE 8.1 mph - N/A   Clear
11:52 AM 75.9 °F - 53.1 °F 45% 29.75 in 10.0 mi ENE 9.2 mph - N/A   Clear
12:52 PM 78.1 °F - 54.0 °F 43% 29.74 in 10.0 mi East 12.7 mph - N/A   Clear
1:52 PM 81.0 °F 80.5 °F 54.0 °F 39% 29.72 in 10.0 mi ESE 15.0 mph 21.9 mph N/A   Clear
2:48 PM 82.4 °F 82.0 °F 57.2 °F 42% 29.75 in 10.0 mi ESE 10.4 mph - N/A Thunderstorm Clear
2:52 PM 84.0 °F 83.3 °F 57.0 °F 40% 29.68 in 10.0 mi East 15.0 mph 19.6 mph N/A Thunderstorm Clear
3:00 PM 80.6 °F 80.5 °F 55.4 °F 42% 29.74 in 10.0 mi ESE 12.7 mph - N/A Thunderstorm Clear
3:52 PM 75.9 °F - 59.0 °F 56% 29.65 in 10.0 mi East 4.6 mph - N/A Thunderstorm Thunderstorm
4:52 PM 69.1 °F - 48.0 °F 47% 29.71 in 10.0 mi Variable 3.5 mph - 0.00 in Thunderstorm Mostly Cloudy
5:24 PM 69.8 °F - 44.6 °F 40% 29.71 in 10.0 mi East 11.5 mph - 0.00 in   Scattered Clouds
5:50 PM 69.8 °F - 46.4 °F 43% 29.70 in 10.0 mi East 10.4 mph - 0.00 in Thunderstorm Partly Cloudy
5:52 PM 69.1 °F - 46.9 °F 45% 29.67 in 10.0 mi ESE 12.7 mph - 0.00 in Thunderstorm Partly Cloudy
6:05 PM 68.0 °F - 48.2 °F 49% 29.72 in 10.0 mi ESE 15.0 mph - N/A   Clear
6:52 PM 68.0 °F - 46.9 °F 47% 29.65 in 10.0 mi SE 23.0 mph 28.8 mph 0.00 in   Partly Cloudy
7:52 PM 66.0 °F - 48.0 °F 52% 29.68 in 10.0 mi ESE 25.3 mph 35.7 mph N/A   Clear
8:52 PM 64.9 °F - 48.9 °F 56% 29.68 in 10.0 mi SE 13.8 mph 24.2 mph N/A   Mostly Cloudy
9:52 PM 64.0 °F - 51.1 °F 63% 29.67 in 10.0 mi ENE 3.5 mph - N/A   Scattered Clouds
10:28 PM 62.6 °F - 51.8 °F 68% 29.74 in 9.0 mi South 4.6 mph - 0.01 in Rain , Thunderstorm Light Rain
10:52 PM 66.9 °F - 52.0 °F 59% 29.64 in 10.0 mi SSE 24.2 mph 34.5 mph 0.02 in   Partly Cloudy
11:52 PM 66.0 °F - 53.1 °F 63% 29.65 in 10.0 mi SE 17.3 mph 27.6 mph N/A   Clear